Flag for France Weather past 2 weeks in Rouen, France

Now
86 °F

Passing clouds.


Feels Like: 92 °F
Forecast: 62 / 76 °F
Wind: 3 mph from Southeast

Location: Rouen Airport

Current Time: Aug 30, 2015 at 4:42:46 PM

Latest Report: Aug 30, 2015 at 4:00 PM


Visibility: N/A

Pressure: 29.98 "Hg

Humidity: 62%

Dew point: 72 °F

Location of RouenLocation

Historic Weather in Rouen — Graph

°F

Rouen temperature yesterday

Maximum temperature yesterday: 81 °F (at 4:30 PM)
Minimum temperature yesterday: 52 °F (at 3:30 AM)
Average temperature yesterday: 67 °F

Past Weeks' High & Low Weather Summary

 TemperatureHumidityPressure
High86 °F (Aug 22, 3:00 PM)100% (Aug 16, 3:00 AM)30.21 "Hg (Aug 16, 3:00 AM)
Low46 °F (Aug 16, 5:30 AM)33% (Aug 22, 6:00 PM)29.36 "Hg (Aug 24, 1:00 PM)
Average64 °F77%29.95 "Hg
* Reported Aug 15 3:00 PM — Aug 30 3:30 PM, Rouen, Weather by CustomWeather, © 2015

Note: Actual official high and low records may vary slightly from our data, if they occured in-between our weather recording intervals... More about our weather records

Advertising

Rouen weather history for previous 24 hours

 ConditionsComfort  
Time TempWeatherWind HumidityBarometerVisibility
3:30 PM
Sun, Aug 30
84 °FSunny.3 mph66%29.98 "Hg10 mi
3:00 PM84 °FSunny.6 mph66%29.98 "Hg10 mi
2:30 PM82 °FPassing clouds.5 mph70%29.98 "HgN/A
2:00 PM82 °FPassing clouds.5 mph70%29.98 "HgN/A
1:30 PM82 °FPassing clouds.5 mph70%29.98 "HgN/A
1:00 PM81 °FPassing clouds.5 mph70%29.98 "HgN/A
12:30 PM79 °FPassing clouds.6 mph74%30.01 "HgN/A
12:00 PM79 °FSunny.5 mph74%30.01 "Hg10 mi
11:30 AM75 °FPassing clouds.5 mph78%30.01 "HgN/A
11:00 AM75 °FBroken clouds.6 mph78%30.01 "HgN/A
10:30 AM73 °FPartly sunny.5 mph83%30.01 "HgN/A
10:00 AM73 °FSunny.3 mph78%30.01 "Hg10 mi
9:30 AM70 °FSunny.3 mph88%30.01 "Hg10 mi
9:00 AM68 °FPassing clouds.3 mph94%30.01 "HgN/A
8:30 AM64 °FFog.2 mph100%30.01 "Hg0 mi
8:00 AM64 °FClear.3 mph94%29.98 "Hg6 mi
7:30 AM64 °FFog.3 mph94%29.98 "Hg3 mi
7:00 AM63 °FClear.2 mph94%29.98 "Hg4 mi
6:30 AM63 °FFog.No wind94%29.98 "Hg2 mi
6:00 AM63 °FClear.1 mph94%29.98 "Hg5 mi
5:30 AM64 °FClear.No wind94%29.98 "Hg4 mi
5:00 AM64 °FClear.2 mph94%29.98 "Hg10 mi
4:30 AM64 °FClear.3 mph94%29.98 "Hg10 mi
4:00 AM66 °FClear.2 mph94%29.98 "Hg10 mi
3:30 AM66 °FClear.5 mph94%29.98 "Hg10 mi
3:00 AM66 °FClear.7 mph94%29.98 "Hg10 mi
2:30 AM66 °FClear.7 mph94%29.98 "Hg10 mi
2:00 AM68 °FClear.7 mph88%29.98 "Hg10 mi
1:30 AM68 °FClear.6 mph88%30.01 "Hg10 mi
1:00 AM70 °FClear.3 mph83%30.01 "Hg10 mi
12:30 AM70 °FClear.7 mph88%30.01 "Hg10 mi
12:00 AM72 °FClear.8 mph83%30.01 "Hg10 mi
11:00 PM
Sat, Aug 29
70 °FClear.8 mph83%30.01 "Hg10 mi
10:30 PM72 °FClear.7 mph83%30.01 "Hg10 mi
10:00 PM72 °FClear.7 mph83%30.01 "Hg10 mi
9:30 PM73 °FSunny.7 mph78%30.01 "Hg10 mi
9:00 PM75 °FSunny.6 mph74%30.01 "Hg10 mi
8:30 PM75 °FSunny.5 mph74%30.01 "Hg10 mi
8:00 PM77 °FSunny.6 mph69%30.01 "Hg10 mi
7:30 PM79 °FSunny.7 mph65%30.01 "Hg10 mi
7:00 PM79 °FSunny.6 mph65%30.01 "Hg10 mi
6:30 PM79 °FSunny.5 mph70%30.04 "Hg10 mi
6:00 PM79 °FOvercast.3 mph65%30.04 "HgN/A
5:30 PM81 °FSunny.3 mph62%30.04 "Hg10 mi
5:00 PM81 °FScattered clouds.5 mph62%30.07 "HgN/A
4:30 PM81 °FPassing clouds.5 mph62%30.07 "HgN/A
4:00 PM79 °FPassing clouds.6 mph61%30.07 "HgN/A
Weather by CustomWeather, © 2015

See weather overviewHow to use our weather pages